St George Municipal Airport
KSGU : now visible

Airfield :











YOU CAN JOIN US ON...

 
LOGIN :

Register | Disclaimer

   EN    FR    IT 

 









Legend :    VFR   Marginal VFR   IFR   Intensive IFR   Very Intensive IFR
Visi :
Ceiling :
>= 8 km
>= 3000ft
5 to 8 km
1000 to 3000 ft
1500m to 5 km
500 to 1000 ft
800 to 1500m
200 to 500 ft
< 800m
< 200 ft
Symbols :   Thunderstorms  Fog  Heavy snow  Heavy precipitations  Wind > 20 kt






- Airport Elevation : 2941 ft


KSGU - St George Municipal

CURRENT METAR :
  • 290456Z AUTO 00000KT 10SM CLR 14/M07 A3012 RMK AO2 SLP189 T01391072

EXPIRED METARs :
  • 290356Z AUTO 03011KT 10SM CLR 17/M07 A3010 RMK AO2 SLP181 T01671072
  • 290256Z AUTO 04014KT 10SM CLR 18/M08 A3008 RMK AO2 SLP177 T01781078 53014

TAF KSGU
Valid from the 29 at 03:00 until the 30 at 00:00 UTC


290256Z 2903/2924 06010KT P6SM SKC
FM290500 12005KT P6SM SKC
FM291100 16007KT P6SM SKC
FM291900 24006KT P6SM SKC
KZLA FIR / North America



MET'MAP, your aeronautical weather chart ! - Copyright ORBIFLY December 2007 - Disclaimer

ORBIFLY MET'MAP TEAM :

Programming & Development : Alexandra Zaïnal
Concept & original design : Baudouin d'Aumeries
Assistance for programming : Marc-Olivier Méhu
Technical & hardware support : Manuel Goepfert

Contact : metmap@orbifly.com




SOURCES & CREDITS :

   NOAA       Earth
Advisory